Location: Brede
(50.9167°N, 0.6000°E)
Time: 20:42:46
(UTC+00:00)

Vanguard 1 Rocket - Pass Details

Date: 28 November 2020
Orbit: 655 x 4221 km, 34.3° (Epoch: 17 January)

Event Time Altitude Azimuth Distance (km) Brightness Sun altitude
Exits shadow 06:39:05 - 271° (W) 7,327 11.4 -8.5°
Reaches altitude 10° 06:43:56 10° 264° (W) 6,239 11.1 -7.8°
Maximum altitude 06:57:05 27° 217° (SW) 3,681 10.4 -5.9°
Drops below altitude 10° 07:05:23 10° 165° (SSE) 3,818 11.3 -4.8°
Sets 07:08:27 0° 152° (SSE) 4,396 12.0 -4.3°
